| time (UTC) | temp C | wind direction | speed KPH | gust KPH | rain 1hr cm | rain 24hr cm | rain mn cm | humidity % | barometer mb |
| 20260901224606 | 22 | 138 | 1.6 | 3.2 | 0.00 | 1.37 | 0.00 | 96 | 1015.7 |
| 20260901223159 | 23 | 285 | 0.0 | 4.8 | 0.00 | 1.37 | 0.00 | 95 | 1016.2 |
| 20260901220047 | 25 | 40 | 0.0 | 0.0 | 0.10 | 1.40 | 0.84 | 94 | 1014.9 |
| 20260901214557 | 25 | 9 | 0.0 | 1.6 | 0.00 | 1.30 | 0.71 | 92 | 1014.6 |
| 20260901213047 | 26 | 20 | 0.0 | 0.0 | 0.00 | 1.30 | 0.71 | 91 | 1015.1 |
| 20260901211545 | 26 | 20 | 0.0 | 0.0 | 0.00 | 1.30 | 0.71 | 91 | 1014.9 |
| 20260901210056 | 26 | 20 | 0.0 | 0.0 | 0.00 | 1.30 | 0.71 | 89 | 1015.2 |
| 20260901204543 | 26 | 19 | 0.0 | 1.6 | 0.00 | 1.30 | 0.71 | 89 | 1014.9 |
| 20260901203044 | 26 | 356 | 0.0 | 1.6 | 0.00 | 1.30 | 0.71 | 90 | 1015.1 |
| 20260901201538 | 25 | 30 | 0.0 | 3.2 | 0.00 | 1.30 | 0.71 | 90 | 1015.2 |
| 20260901200038 | 25 | 314 | 0.0 | 3.2 | 0.00 | 1.30 | 0.71 | 91 | 1015.3 |
| 20260901194545 | 25 | 35 | 0.0 | 1.6 | 0.00 | 1.40 | 0.71 | 91 | 1015.3 |
| 20260901193036 | 26 | 354 | 0.0 | 3.2 | 0.00 | 1.40 | 0.71 | 90 | 1015.4 |
| 20260901191541 | 25 | 321 | 0.0 | 4.8 | 0.00 | 1.40 | 0.71 | 90 | 1015.3 |
| 20260901190031 | 25 | 308 | 1.6 | 6.4 | 0.00 | 1.40 | 0.71 | 92 | 1015.3 |
| 20260901184529 | 24 | 293 | 0.0 | 6.4 | 0.00 | 1.42 | 0.71 | 94 | 1015.5 |
| 20260901183036 | 24 | 356 | 0.0 | 6.4 | 0.00 | 1.42 | 0.71 | 97 | 1015.6 |
| 20260901181529 | 23 | 342 | 0.0 | 1.6 | 0.00 | 1.42 | 0.71 | 99 | 1015.4 |
| 20260901180021 | 23 | 108 | 0.0 | 1.6 | 0.00 | 1.42 | 0.71 | 100 | 1015.5 |
| 20260901174518 | 23 | 189 | 0.0 | 3.2 | 0.00 | 1.42 | 0.71 | 100 | 1015.3 |
| 20260901173020 | 22 | 56 | 0.0 | 1.6 | 0.00 | 1.42 | 0.71 | 100 | 1015.1 |
| 20260901171511 | 22 | 169 | 0.0 | 0.0 | 0.00 | 1.42 | 0.71 | 100 | 1015.3 |
| 20260901170009 | 21 | 114 | 0.0 | 0.0 | 0.00 | 1.42 | 0.71 | 100 | 1015.6 |
| 20260901164506 | 21 | 326 | 0.0 | 6.4 | 0.00 | 1.42 | 0.71 | 100 | 1015.9 |
| 20260901163005 | 21 | 340 | 1.6 | 4.8 | 0.00 | 1.42 | 0.71 | 100 | 1016.8 |
| 20260901161506 | 21 | 8 | 0.0 | 0.0 | 0.00 | 1.42 | 0.71 | 100 | 1016.2 |
| 20260901160001 | 21 | 8 | 0.0 | 0.0 | 0.05 | 1.42 | 0.71 | 100 | 1016.1 |
| 20260901154618 | 21 | 8 | 0.0 | 0.0 | 0.20 | 1.42 | 0.71 | 100 | 1016.2 |
| 20260901154501 | 21 | 8 | 0.0 | 0.0 | 0.23 | 1.42 | 0.71 | 100 | 1016.2 |
| 20260901153157 | 21 | 8 | 0.0 | 0.0 | 0.25 | 1.42 | 0.71 | 100 | 1016.7 |
| 20260901151558 | 20 | 8 | 0.0 | 0.0 | 0.28 | 1.42 | 0.71 | 100 | 1016.9 |
| 20260901150107 | 20 | 8 | 0.0 | 1.6 | 0.33 | 1.40 | 0.69 | 100 | 1017.2 |
| 20260901144555 | 20 | 32 | 0.0 | 1.6 | 0.18 | 1.24 | 0.53 | 100 | 1017.6 |
| 20260901143055 | 20 | 32 | 0.0 | 1.6 | 0.13 | 1.17 | 0.46 | 100 | 1017.3 |
| 20260901141601 | 20 | 345 | 0.0 | 4.8 | 0.13 | 1.17 | 0.46 | 100 | 1017.4 |
| 20260901140058 | 21 | 36 | 0.0 | 0.0 | 0.03 | 1.07 | 0.36 | 100 | 1017.2 |
| 20260901134553 | 20 | 35 | 0.0 | 0.0 | 0.03 | 1.07 | 0.36 | 100 | 1016.5 |
| 20260901133054 | 20 | 35 | 0.0 | 3.2 | 0.00 | 1.04 | 0.33 | 100 | 1016.4 |
| 20260901131553 | 20 | 89 | 0.0 | 3.2 | 0.00 | 1.04 | 0.33 | 100 | 1016.9 |
| 20260901130050 | 20 | 27 | 0.0 | 0.0 | 0.00 | 1.04 | 0.33 | 100 | 1016.9 |
| 20260901124550 | 20 | 27 | 0.0 | 1.6 | 0.00 | 1.04 | 0.33 | 100 | 1016.8 |
| 20260901123052 | 20 | 25 | 0.0 | 3.2 | 0.00 | 1.04 | 0.33 | 100 | 1017.0 |
| 20260901121547 | 20 | 102 | 0.0 | 0.0 | 0.00 | 1.04 | 0.33 | 100 | 1017.0 |
| 20260901120100 | 20 | 112 | 0.0 | 0.0 | 0.03 | 1.04 | 0.33 | 100 | 1016.8 |
| 20260901114550 | 20 | 112 | 0.0 | 0.0 | 0.15 | 1.04 | 0.33 | 100 | 1016.4 |
| 20260901113053 | 20 | 112 | 0.0 | 0.0 | 0.28 | 1.04 | 0.33 | 100 | 1016.7 |
| 20260901111542 | 20 | 112 | 0.0 | 0.0 | 0.30 | 1.04 | 0.33 | 100 | 1016.8 |
| 20260901110049 | 20 | 112 | 0.0 | 0.0 | 0.28 | 1.02 | 0.30 | 100 | 1016.9 |
| 20260901104540 | 19 | 113 | 0.0 | 3.2 | 0.13 | 0.86 | 0.15 | 100 | 1017.1 |
| 20260901103049 | 19 | 342 | 0.0 | 1.6 | 0.00 | 0.71 | 0.03 | 100 | 1017.0 |
| 20260901101538 | 19 | 10 | 0.0 | 1.6 | 0.00 | 0.71 | 0.03 | 100 | 1016.9 |
| 20260901100036 | 19 | 342 | 0.0 | 1.6 | 0.00 | 0.71 | 0.03 | 100 | 1016.8 |
| 20260901094535 | 19 | 121 | 0.0 | 0.0 | 0.00 | 0.71 | 0.03 | 100 | 1016.6 |
| 20260901093036 | 19 | 20 | 0.0 | 3.2 | 0.00 | 0.71 | 0.03 | 100 | 1016.8 |
| 20260901091534 | 18 | 35 | 0.0 | 0.0 | 0.00 | 0.71 | 0.03 | 100 | 1016.9 |
| 20260901090032 | 18 | 35 | 0.0 | 0.0 | 0.00 | 0.71 | 0.03 | 100 | 1016.8 |
| 20260901084531 | 18 | 35 | 0.0 | 3.2 | 0.00 | 0.71 | 0.03 | 100 | 1016.9 |
| 20260901083030 | 18 | 288 | 0.0 | 1.6 | 0.00 | 0.71 | 0.03 | 100 | 1017.1 |
| 20260901081528 | 18 | 307 | 0.0 | 1.6 | 0.00 | 0.71 | 0.03 | 100 | 1017.3 |
| 20260901080036 | 18 | 8 | 0.0 | 1.6 | 0.00 | 0.71 | 0.03 | 100 | 1017.3 |
| 20260901074527 | 18 | 42 | 0.0 | 0.0 | 0.03 | 0.71 | 0.03 | 100 | 1017.4 |
| 20260901073027 | 18 | 42 | 0.0 | 1.6 | 0.03 | 0.71 | 0.03 | 100 | 1017.4 |
| 20260901071524 | 18 | 9 | 0.0 | 0.0 | 0.03 | 0.71 | 0.03 | 100 | 1017.3 |
| 20260901070022 | 19 | 9 | 0.0 | 8.0 | 0.03 | 0.71 | 0.03 | 100 | 1017.7 |
| 20260901064525 | 19 | 57 | 0.0 | 0.0 | 0.00 | 0.71 | 0.00 | 100 | 1017.7 |
| 20260901063041 | 19 | 57 | 0.0 | 0.0 | 0.00 | 0.71 | 0.00 | 100 | 1017.7 |
| 20260901061519 | 19 | 57 | 0.0 | 1.6 | 0.00 | 0.71 | 0.00 | 100 | 1017.8 |
| 20260901060016 | 18 | 218 | 0.0 | 0.0 | 0.00 | 0.71 | 0.00 | 100 | 1017.9 |
| 20260901054515 | 18 | 200 | 0.0 | 0.0 | 0.00 | 0.71 | 0.00 | 100 | 1018.0 |
| 20260901053013 | 18 | 200 | 0.0 | 0.0 | 0.00 | 0.71 | 0.00 | 100 | 1018.1 |
| 20260901051511 | 18 | 199 | 0.0 | 0.0 | 0.00 | 0.71 | 0.00 | 100 | 1018.2 |
| 20260901050010 | 18 | 199 | 0.0 | 1.6 | 0.00 | 0.71 | 0.00 | 100 | 1018.3 |
| 20260901044509 | 18 | 196 | 0.0 | 1.6 | 0.00 | 0.71 | 0.00 | 100 | 1018.4 |
| 20260901043008 | 18 | 197 | 0.0 | 0.0 | 0.13 | 0.71 | 0.00 | 99 | 1018.5 |
| 20260901041505 | 18 | 198 | 0.0 | 1.6 | 0.30 | 0.71 | 0.00 | 99 | 1018.5 |
| 20260901040005 | 18 | 198 | 0.0 | 0.0 | 0.33 | 0.71 | 0.00 | 99 | 1018.6 |
| 20260901034503 | 18 | 198 | 0.0 | 0.0 | 0.33 | 0.71 | 0.71 | 99 | 1018.8 |
| 20260901033101 | 18 | 198 | 0.0 | 1.6 | 0.28 | 0.61 | 0.58 | 99 | 1018.7 |
| 20260901031559 | 18 | 213 | 0.0 | 0.0 | 0.13 | 0.43 | 0.41 | 99 | 1018.7 |
| 20260901030059 | 18 | 213 | 0.0 | 1.6 | 0.10 | 0.41 | 0.38 | 99 | 1018.7 |
| 20260901024557 | 18 | 221 | 0.0 | 0.0 | 0.10 | 0.41 | 0.38 | 99 | 1019.0 |
| 20260901023056 | 18 | 226 | 0.0 | 0.0 | 0.03 | 0.33 | 0.30 | 99 | 1019.2 |
| 20260901021557 | 18 | 243 | 0.0 | 0.0 | 0.00 | 0.30 | 0.28 | 99 | 1019.3 |
| 20260901020057 | 18 | 243 | 0.0 | 0.0 | 0.00 | 0.30 | 0.28 | 99 | 1019.3 |
| 20260901014555 | 18 | 243 | 0.0 | 0.0 | 0.00 | 0.30 | 0.28 | 99 | 1019.3 |
| 20260901013110 | 18 | 243 | 0.0 | 0.0 | 0.00 | 0.30 | 0.28 | 99 | 1019.4 |
| 20260901011554 | 18 | 243 | 0.0 | 1.6 | 0.00 | 0.30 | 0.28 | 99 | 1019.3 |
| 20260901010057 | 18 | 309 | 0.0 | 0.0 | 0.00 | 0.30 | 0.28 | 98 | 1019.4 |
| 20260901004553 | 19 | 309 | 0.0 | 0.0 | 0.08 | 0.30 | 0.28 | 98 | 1019.2 |
| 20260901003052 | 19 | 311 | 0.0 | 0.0 | 0.13 | 0.30 | 0.28 | 98 | 1019.1 |
| 20260901001553 | 19 | 311 | 0.0 | 0.0 | 0.13 | 0.30 | 0.28 | 98 | 1019.0 |
| 20260901000052 | 19 | 311 | 0.0 | 0.0 | 0.13 | 0.30 | 0.28 | 98 | 1018.9 |
| 20260831234553 | 19 | 311 | 0.0 | 0.0 | 0.05 | 0.23 | 0.20 | 97 | 1019.1 |
| 20260831233053 | 20 | 311 | 0.0 | 0.0 | 0.00 | 0.18 | 0.15 | 97 | 1019.2 |
| 20260831231549 | 20 | 311 | 0.0 | 0.0 | 0.00 | 0.18 | 0.15 | 97 | 1019.4 |
| 20260831230047 | 20 | 311 | 0.0 | 0.0 | 0.00 | 0.18 | 0.15 | 96 | 1019.6 |